Location: Unspecified
(45.3712°N, 0.6436°E)
Time: 01:05:29
(UTC+02:00)

ISS - Pass Details

Date: 22 July 2018
Orbit: 402 x 408 km, 51.6° (Epoch: 18 July)

Event Time Altitude Azimuth Distance (km) Brightness Sun altitude
Rises 23:34:58 0° 259° (W) 2,316 0.4 -16.3°
Reaches altitude 10° 23:37:06 10° 266° (W) 1,459 -0.6 -16.5°
Maximum altitude 23:40:14 43° 340° (NNW) 581 -2.6 -16.8°
Drops below altitude 10° 23:43:24 10° 54° (NE) 1,467 -1.0 -17.1°
Sets 23:45:33 0° 61° (ENE) 2,330 0.0 -17.3°
